Flag for Austria Weather past 2 weeks in Kirchdorf an der Krems, Upper Austria, Austria

Now
65 °F

Mild.


Feels Like: 65 °F
Forecast: 45 / 74 °F
Wind: 1 mph from North

Location: Kremsmuenster

Current Time: Aug 21, 2014 at 7:03:01 PM

Latest Report: Aug 21, 2014 at 6:00 PM


Visibility: N/A

Pressure: 30.01 "Hg

Humidity: 58%

Dew point: 50 °F

Location of Kirchdorf an der KremsLocation

Historic Weather in Kirchdorf an der Krems — Graph

°F

Kirchdorf an der Krems temperature yesterday

Maximum temperature yesterday: 62 °F (at 12:00 AM)
Minimum temperature yesterday: 55 °F (at 11:00 PM)
Average temperature yesterday: 59 °F

Past Weeks' High & Low Weather Summary

 TemperatureHumidityPressure
High84 °F (Aug 10, 5:00 PM)99% (Aug 10, 7:00 AM)30.15 "Hg (Aug 10, 7:00 AM)
Low52 °F (Aug 21, 6:00 AM)39% (Aug 17, 5:00 PM)29.67 "Hg (Aug 13, 7:00 PM)
Average64 °F76%29.96 "Hg
* Reported Aug 6 5:00 PM — Aug 21 5:00 PM, Kirchdorf an der Krems, Weather by CustomWeather, © 2014

Note: Actual official high and low records may vary slightly from our data, if they occured in-between our weather recording intervals... More about our weather records

Advertising

Kirchdorf an der Krems weather history for previous 24 hours

 ConditionsComfort  
Time TempWeatherWind HumidityBarometerVisibility
5:00 PM
Aug 21
67 °FOvercast.1 mph56%30.01 "Hg14 mi
4:00 PM66 °FMild.2 mph52%30.03 "HgN/A
3:00 PM64 °FMild.1 mph65%30.04 "HgN/A
2:00 PM65 °FMild.5 mph59%30.05 "HgN/A
1:00 PM63 °FMild.5 mph68%30.07 "HgN/A
12:00 PM62 °FCool.6 mph71%30.07 "HgN/A
11:00 AM59 °FDrizzle. Overcast.6 mph81%30.07 "Hg16 mi
10:00 AM57 °FCool.2 mph84%30.07 "HgN/A
9:00 AM56 °FCool.2 mph91%30.06 "HgN/A
8:00 AM53 °FLow clouds.1 mph95%30.06 "Hg6 mi
6:00 AM52 °FCool.1 mph96%30.04 "HgN/A
5:00 AM53 °FCool.1 mph95%30.04 "HgN/A
4:00 AM53 °FSprinkles. Overcast.1 mph94%30.05 "HgN/A
3:00 AM53 °FSprinkles. Overcast.2 mph95%30.03 "HgN/A
2:00 AM53 °FCool.1 mph93%30.03 "HgN/A
1:00 AM53 °FFog.1 mph94%30.05 "HgN/A
12:00 AM54 °FCool.3 mph91%30.06 "HgN/A
11:00 PM
Aug 20
55 °FCool.1 mph93%30.06 "HgN/A
10:00 PM56 °FFog.5 mph93%30.04 "HgN/A
9:00 PM56 °FCool.2 mph91%30.05 "HgN/A
8:00 PM57 °FOvercast.2 mph91%30.02 "Hg14 mi
7:00 PM58 °FCool.2 mph87%30.03 "HgN/A
Weather by CustomWeather, © 2014

See weather overviewHow to use our weather pages